"Period start","avg(HW err(1)/warn(2) (#))","avg(Visibility (m))","avg(Weather code (#))","avg(Precip intensity (mm/h))","min(HW err(1)/warn(2) (#))","max(HW err(1)/warn(2) (#))","std(HW err(1)/warn(2) (#))","med(HW err(1)/warn(2) (#))","min(Visibility (m))","max(Visibility (m))","std(Visibility (m))","med(Visibility (m))","min(Weather code (#))","max(Weather code (#))","std(Weather code (#))","med(Weather code (#))","min(Precip intensity (mm/h))","max(Precip intensity (mm/h))","std(Precip intensity (mm/h))","med(Precip intensity (mm/h))"
2016-11-24 00:00:00,1,,,,1,1,0,1,,,,,,,,,,,,
2016-11-24 00:10:00,1,,,,1,1,0,1,,,,,,,,,,,,
2016-11-24 00:20:00,1,,,,1,1,0,1,,,,,,,,,,,,
2016-11-24 00:30:00,1,,,,1,1,0,1,,,,,,,,,,,,
2016-11-24 00:40:00,1,,,,1,1,0,1,,,,,,,,,,,,
2016-11-24 00:50:00,2,50000,,0.00,1,2,0,2,50000,50000,0,50000,,,,,0.00,0.00,0.00,0.00
2016-11-24 01:00:00,2,50000,0,0.00,2,2,0,2,50000,50000,0,50000,0,0,0,0,0.00,0.00,0.00,0.00
2016-11-24 01:10:00,2,50000,0,0.00,2,2,0,2,50000,50000,0,50000,0,0,0,0,0.00,0.00,0.00,0.00
2016-11-24 01:20:00,2,44424,0,0.00,2,2,0,2,33557,50000,6301,47986,0,0,0,0,0.00,0.00,0.00,0.00
2016-11-24 01:30:00,2,28795,0,0.00,2,2,0,2,20343,42401,6763,26680,0,0,0,0,0.00,0.00,0.00,0.00
2016-11-24 01:40:00,2,31636,0,0.00,2,2,0,2,25171,41643,5555,30512,0,0,0,0,0.00,0.00,0.00,0.00
2016-11-24 01:50:00,2,45682,0,0.00,1,2,0,2,35031,50000,4554,45538,0,0,0,0,0.00,0.00,0.00,0.00
2016-11-24 02:00:00,1,,,,1,1,0,1,,,,,,,,,,,,
2016-11-24 02:10:00,1,,,,1,1,0,1,,,,,,,,,,,,
2016-11-24 02:20:00,1,,,,1,1,0,1,,,,,,,,,,,,
2016-11-24 02:30:00,1,50000,,0.00,1,2,0,1,50000,50000,0,50000,,,,,0.00,0.00,0.00,0.00
2016-11-24 02:40:00,2,42958,0,0.00,2,2,0,2,26809,50000,6682,44403,0,0,0,0,0.00,0.00,0.00,0.00
2016-11-24 02:50:00,2,48496,0,0.00,2,2,0,2,43584,50000,1939,49322,0,0,0,0,0.00,0.00,0.00,0.00
2016-11-24 03:00:00,1,,,,1,1,0,1,,,,,,,,,,,,
2016-11-24 03:10:00,1,,,,1,1,0,1,,,,,,,,,,,,
2016-11-24 03:20:00,1,,,,1,1,0,1,,,,,,,,,,,,
2016-11-24 03:30:00,1,,,,1,1,0,1,,,,,,,,,,,,
2016-11-24 03:40:00,1,,,,1,1,0,1,,,,,,,,,,,,
2016-11-24 03:50:00,1,,,,1,1,0,1,,,,,,,,,,,,
2016-11-24 04:00:00,1,,,,1,1,0,1,,,,,,,,,,,,
2016-11-24 04:10:00,1,,,,1,1,0,1,,,,,,,,,,,,
2016-11-24 04:20:00,2,43079,0,0.00,1,2,0,2,30190,50000,7331,45290,0,0,0,0,0.00,0.00,0.00,0.00
2016-11-24 04:30:00,2,45240,0,0.00,2,2,0,2,35996,49935,4338,47128,0,0,0,0,0.00,0.00,0.00,0.00
2016-11-24 04:40:00,2,40017,0,0.00,2,2,0,2,31324,49879,5745,40976,0,0,0,0,0.00,0.00,0.00,0.00
2016-11-24 04:50:00,2,40645,0,0.00,2,2,0,2,33260,47637,5131,42415,0,0,0,0,0.00,0.00,0.00,0.00
2016-11-24 05:00:00,2,47647,0,0.00,2,2,0,2,38440,50000,3820,50000,0,0,0,0,0.00,0.00,0.00,0.00
2016-11-24 05:10:00,2,42949,0,0.00,2,2,0,2,36421,50000,4346,41184,0,0,0,0,0.00,0.00,0.00,0.00
2016-11-24 05:20:00,2,39135,0,0.00,2,2,0,2,21541,49027,8954,40901,0,0,0,0,0.00,0.00,0.00,0.00
2016-11-24 05:30:00,2,32899,0,0.00,2,2,0,2,29535,41203,3442,31728,0,0,0,0,0.00,0.00,0.00,0.00
2016-11-24 05:40:00,2,22181,41,0.00,2,2,0,2,12863,31332,5882,20090,0,77,30,41,0.00,0.00,0.00,0.00
2016-11-24 05:50:00,2,12696,75,0.00,2,2,0,2,8491,18124,2735,12602,71,77,3,77,0.00,0.00,0.00,0.00
2016-11-24 06:00:00,2,20744,75,0.00,2,2,0,2,14951,30054,4070,19996,71,77,3,77,0.00,0.00,0.00,0.00
2016-11-24 06:10:00,2,24915,75,0.03,2,2,0,2,15953,33315,6059,25665,71,77,3,77,0.00,0.10,0.04,0.00
2016-11-24 06:20:00,2,18067,74,0.02,2,2,0,2,13206,25410,4048,18710,71,77,3,74,0.00,0.05,0.02,0.00
2016-11-24 06:30:00,2,25093,75,0.01,2,2,0,2,15788,29667,3597,26152,71,77,3,77,0.00,0.05,0.02,0.00
2016-11-24 06:40:00,2,14154,72,0.07,2,2,0,2,10528,17925,2452,14027,71,77,2,71,0.00,0.20,0.05,0.05
2016-11-24 06:50:00,2,15247,73,0.04,2,2,0,2,9880,23654,4290,13713,71,77,3,71,0.00,0.15,0.05,0.00
2016-11-24 07:00:00,2,23233,67,0.01,2,2,0,2,15166,34198,6117,22210,0,77,22,74,0.00,0.05,0.02,0.00
2016-11-24 07:10:00,2,30737,0,0.00,2,2,0,2,18554,41721,6833,31450,0,0,0,0,0.00,0.00,0.00,0.00
2016-11-24 07:20:00,2,17099,73,0.00,2,2,0,2,13741,22518,2834,17352,71,77,3,71,0.00,0.00,0.00,0.00
2016-11-24 07:30:00,2,21323,75,0.00,2,2,0,2,14436,29299,4514,21898,71,77,3,77,0.00,0.00,0.00,0.00
2016-11-24 07:40:00,2,23915,75,0.01,2,2,0,2,17625,31212,4543,23166,71,77,3,77,0.00,0.05,0.02,0.00
2016-11-24 07:50:00,2,22810,75,0.01,2,2,0,2,16061,35872,6331,21392,71,77,3,77,0.00,0.05,0.02,0.00
2016-11-24 08:00:00,2,40385,75,0.00,2,2,0,2,32036,45181,4027,40523,71,77,3,77,0.00,0.00,0.00,0.00
2016-11-24 08:10:00,2,23071,75,0.02,2,2,0,2,9646,31806,6295,23911,71,77,3,77,0.00,0.05,0.02,0.00
2016-11-24 08:20:00,2,8145,72,0.09,2,2,0,2,4801,10922,1691,8132,71,77,2,71,0.00,0.35,0.11,0.05
2016-11-24 08:30:00,2,16556,74,0.01,2,2,0,2,8090,32001,6898,14256,71,77,3,74,0.00,0.05,0.02,0.00
2016-11-24 08:40:00,2,18919,75,0.02,2,2,0,2,13549,26508,4098,17954,71,77,3,77,0.00,0.05,0.02,0.00
2016-11-24 08:50:00,2,16300,75,0.12,2,2,0,2,4389,35323,11394,11276,71,77,3,77,0.00,0.40,0.15,0.05
2016-11-24 09:00:00,2,10077,71,0.08,2,2,0,2,5375,14988,3079,9526,71,71,0,71,0.00,0.25,0.07,0.05
2016-11-24 09:10:00,2,15202,73,0.05,2,2,0,2,5400,22045,5756,15348,71,77,3,71,0.00,0.20,0.06,0.03
2016-11-24 09:20:00,2,11309,71,0.07,2,2,0,2,5408,16818,3725,12033,71,71,0,71,0.00,0.15,0.04,0.05
2016-11-24 09:30:00,2,13358,74,0.05,2,2,0,2,6441,22565,6311,12190,71,77,3,74,0.00,0.20,0.06,0.03
2016-11-24 09:40:00,2,34758,77,0.01,2,2,0,2,25749,40801,5375,37534,77,78,0,77,0.00,0.05,0.02,0.00
2016-11-24 09:50:00,2,44577,47,0.01,2,2,0,2,34886,50000,4874,45136,0,78,38,77,0.00,0.05,0.02,0.00
2016-11-24 10:00:00,2,32631,61,0.02,2,2,0,2,19286,47453,7919,32341,0,78,30,77,0.00,0.10,0.03,0.00
2016-11-24 10:10:00,2,32437,76,0.00,2,2,0,2,27009,37965,2856,32618,71,78,3,77,0.00,0.00,0.00,0.00
2016-11-24 10:20:00,2,33347,78,0.00,2,2,0,2,24863,42420,6128,33162,78,78,0,78,0.00,0.00,0.00,0.00
2016-11-24 10:30:00,2,29587,78,0.00,2,2,0,2,25597,37060,3432,28974,78,78,0,78,0.00,0.00,0.00,0.00
2016-11-24 10:40:00,2,26199,78,0.00,2,2,0,2,20413,37857,4702,25230,77,78,0,78,0.00,0.00,0.00,0.00
2016-11-24 10:50:00,2,20738,77,0.01,2,2,0,2,14851,25306,3119,20650,77,78,0,77,0.00,0.05,0.02,0.00
2016-11-24 11:00:00,2,22603,77,0.01,2,2,0,2,15316,35822,5967,20464,77,77,0,77,0.00,0.05,0.02,0.00
2016-11-24 11:10:00,2,18452,73,0.06,2,2,0,2,7696,28364,6076,18070,71,77,3,71,0.00,0.40,0.12,0.00
2016-11-24 11:20:00,2,24546,73,0.02,2,2,0,2,12148,38101,8164,24684,71,77,3,71,0.00,0.10,0.03,0.00
2016-11-24 11:30:00,2,31722,70,0.00,2,2,0,2,19382,39787,6040,32480,0,78,23,78,0.00,0.00,0.00,0.00
2016-11-24 11:40:00,2,35051,0,0.00,2,2,0,2,30375,43141,4219,34409,0,0,0,0,0.00,0.00,0.00,0.00
2016-11-24 11:50:00,2,35302,4,0.00,2,2,0,2,25391,45920,6630,34818,0,40,12,0,0.00,0.00,0.00,0.00
2016-11-24 12:00:00,2,25530,62,0.01,2,2,0,2,8992,37592,9467,26368,41,71,14,71,0.00,0.10,0.03,0.00
2016-11-24 12:10:00,2,21101,74,0.01,2,2,0,2,7757,42596,13464,13834,71,77,3,74,0.00,0.05,0.02,0.00
2016-11-24 12:20:00,2,18906,68,0.01,2,2,0,2,8796,38957,9912,14538,0,77,23,77,0.00,0.05,0.02,0.00
2016-11-24 12:30:00,2,12112,21,0.00,2,2,0,2,5960,31819,7568,9668,0,71,33,0,0.00,0.00,0.00,0.00
2016-11-24 12:40:00,2,6440,76,0.02,2,2,0,2,5183,8067,1023,6359,71,77,2,77,0.00,0.05,0.02,0.00
2016-11-24 12:50:00,2,19712,41,0.00,2,2,0,2,12104,26503,4423,19130,0,77,35,40,0.00,0.00,0.00,0.00
2016-11-24 13:00:00,2,13310,0,0.00,2,2,0,2,11138,16881,1605,13066,0,0,0,0,0.00,0.00,0.00,0.00
2016-11-24 13:10:00,2,23772,0,0.00,2,2,0,2,12911,38806,8308,21836,0,0,0,0,0.00,0.00,0.00,0.00
2016-11-24 13:20:00,2,34241,0,0.00,2,2,0,2,28257,46526,5493,33672,0,0,0,0,0.00,0.00,0.00,0.00
2016-11-24 13:30:00,2,31621,0,0.00,2,2,0,2,23453,37873,4243,32685,0,0,0,0,0.00,0.00,0.00,0.00
2016-11-24 13:40:00,2,32344,0,0.00,2,2,0,2,23627,38577,4555,33119,0,0,0,0,0.00,0.00,0.00,0.00
2016-11-24 13:50:00,2,27666,0,0.00,2,2,0,2,22956,31440,2248,27693,0,0,0,0,0.00,0.00,0.00,0.00
2016-11-24 14:00:00,2,29607,0,0.00,2,2,0,2,20364,40778,6787,30542,0,0,0,0,0.00,0.00,0.00,0.00
2016-11-24 14:10:00,2,22863,0,0.00,2,2,0,2,16122,39016,6607,21368,0,0,0,0,0.00,0.00,0.00,0.00
2016-11-24 14:20:00,2,16125,0,0.00,2,2,0,2,11834,23258,3018,15605,0,0,0,0,0.00,0.00,0.00,0.00
2016-11-24 14:30:00,2,21562,0,0.00,2,2,0,2,15788,30220,4292,20450,0,0,0,0,0.00,0.00,0.00,0.00
2016-11-24 14:40:00,2,22382,0,0.00,2,2,0,2,13638,31899,6280,23986,0,0,0,0,0.00,0.00,0.00,0.00
2016-11-24 14:50:00,2,21992,0,0.00,2,2,0,2,19502,25050,1810,21700,0,0,0,0,0.00,0.00,0.00,0.00
2016-11-24 15:00:00,2,26431,0,0.00,2,2,0,2,15660,33115,4283,26730,0,0,0,0,0.00,0.00,0.00,0.00
2016-11-24 15:10:00,2,21030,0,0.00,2,2,0,2,13852,33846,6960,18304,0,0,0,0,0.00,0.00,0.00,0.00
2016-11-24 15:20:00,2,46134,0,0.00,2,2,0,2,41340,50000,3288,46956,0,0,0,0,0.00,0.00,0.00,0.00
2016-11-24 15:30:00,2,46505,0,0.00,2,2,0,2,38889,50000,3841,47862,0,0,0,0,0.00,0.00,0.00,0.00
2016-11-24 15:40:00,2,46373,0,0.00,2,2,0,2,36415,50000,4979,48986,0,0,0,0,0.00,0.00,0.00,0.00
2016-11-24 15:50:00,2,49786,0,0.00,2,2,0,2,48742,50000,423,50000,0,0,0,0,0.00,0.00,0.00,0.00
2016-11-24 16:00:00,2,50000,0,0.00,2,2,0,2,50000,50000,0,50000,0,0,0,0,0.00,0.00,0.00,0.00
2016-11-24 16:10:00,2,42857,0,0.00,1,2,0,2,0,50000,17496,50000,0,0,0,0,0.00,0.00,0.00,0.00
2016-11-24 16:20:00,1,,,,1,1,0,1,,,,,,,,,,,,
2016-11-24 16:30:00,1,,,,1,1,0,1,,,,,,,,,,,,
2016-11-24 16:40:00,1,,,,1,1,0,1,,,,,,,,,,,,
2016-11-24 16:50:00,2,50000,0,0.00,1,2,0,2,50000,50000,0,50000,0,0,0,0,0.00,0.00,0.00,0.00
2016-11-24 17:00:00,2,50000,0,0.00,2,2,0,2,50000,50000,0,50000,0,0,0,0,0.00,0.00,0.00,0.00
2016-11-24 17:10:00,2,50000,0,0.00,2,2,0,2,50000,50000,0,50000,0,0,0,0,0.00,0.00,0.00,0.00
2016-11-24 17:20:00,2,50000,0,0.00,2,2,0,2,50000,50000,0,50000,0,0,0,0,0.00,0.00,0.00,0.00
2016-11-24 17:30:00,2,50000,0,0.00,2,2,0,2,50000,50000,0,50000,0,0,0,0,0.00,0.00,0.00,0.00
2016-11-24 17:40:00,2,50000,0,0.00,2,2,0,2,50000,50000,0,50000,0,0,0,0,0.00,0.00,0.00,0.00
2016-11-24 17:50:00,2,50000,0,0.00,2,2,0,2,50000,50000,0,50000,0,0,0,0,0.00,0.00,0.00,0.00
2016-11-24 18:00:00,2,50000,0,0.00,2,2,0,2,50000,50000,0,50000,0,0,0,0,0.00,0.00,0.00,0.00
2016-11-24 18:10:00,2,50000,0,0.00,2,2,0,2,50000,50000,0,50000,0,0,0,0,0.00,0.00,0.00,0.00
2016-11-24 18:20:00,2,50000,0,0.00,2,2,0,2,50000,50000,0,50000,0,0,0,0,0.00,0.00,0.00,0.00
2016-11-24 18:30:00,2,50000,0,0.00,2,2,0,2,50000,50000,0,50000,0,0,0,0,0.00,0.00,0.00,0.00
2016-11-24 18:40:00,2,50000,0,0.00,2,2,0,2,50000,50000,0,50000,0,0,0,0,0.00,0.00,0.00,0.00
2016-11-24 18:50:00,2,50000,0,0.00,2,2,0,2,50000,50000,0,50000,0,0,0,0,0.00,0.00,0.00,0.00
2016-11-24 19:00:00,2,50000,0,0.00,2,2,0,2,50000,50000,0,50000,0,0,0,0,0.00,0.00,0.00,0.00
2016-11-24 19:10:00,2,50000,0,0.00,2,2,0,2,50000,50000,0,50000,0,0,0,0,0.00,0.00,0.00,0.00
2016-11-24 19:20:00,2,50000,0,0.00,2,2,0,2,50000,50000,0,50000,0,0,0,0,0.00,0.00,0.00,0.00
2016-11-24 19:30:00,2,50000,0,0.00,2,2,0,2,50000,50000,0,50000,0,0,0,0,0.00,0.00,0.00,0.00
2016-11-24 19:40:00,2,50000,0,0.00,1,2,0,2,50000,50000,0,50000,0,0,0,0,0.00,0.00,0.00,0.00
2016-11-24 19:50:00,1,,,,1,1,0,1,,,,,,,,,,,,
2016-11-24 20:00:00,1,,,,1,1,0,1,,,,,,,,,,,,
2016-11-24 20:10:00,1,,,,1,1,0,1,,,,,,,,,,,,
2016-11-24 20:20:00,1,,,,1,1,0,1,,,,,,,,,,,,
2016-11-24 20:30:00,1,,,,1,1,0,1,,,,,,,,,,,,
2016-11-24 20:40:00,1,,,,1,1,0,1,,,,,,,,,,,,
2016-11-24 20:50:00,1,,,,1,1,0,1,,,,,,,,,,,,
2016-11-24 21:00:00,1,,,,1,1,0,1,,,,,,,,,,,,
2016-11-24 21:10:00,2,25000,,0.00,1,2,0,2,0,50000,25000,25000,,,,,0.00,0.00,0.00,0.00
2016-11-24 21:20:00,2,50000,0,0.00,2,2,0,2,50000,50000,0,50000,0,0,0,0,0.00,0.00,0.00,0.00
2016-11-24 21:30:00,2,50000,0,0.00,2,2,0,2,50000,50000,0,50000,0,0,0,0,0.00,0.00,0.00,0.00
2016-11-24 21:40:00,2,50000,0,0.00,2,2,0,2,50000,50000,0,50000,0,0,0,0,0.00,0.00,0.00,0.00
2016-11-24 21:50:00,2,50000,0,0.00,2,2,0,2,50000,50000,0,50000,0,0,0,0,0.00,0.00,0.00,0.00
2016-11-24 22:00:00,2,50000,0,0.00,2,2,0,2,50000,50000,0,50000,0,0,0,0,0.00,0.00,0.00,0.00
2016-11-24 22:10:00,2,50000,0,0.00,2,2,0,2,50000,50000,0,50000,0,0,0,0,0.00,0.00,0.00,0.00
2016-11-24 22:20:00,2,50000,0,0.00,2,2,0,2,50000,50000,0,50000,0,0,0,0,0.00,0.00,0.00,0.00
2016-11-24 22:30:00,2,50000,0,0.00,1,2,0,2,50000,50000,0,50000,0,0,0,0,0.00,0.00,0.00,0.00
2016-11-24 22:40:00,1,,,,1,1,0,1,,,,,,,,,,,,
2016-11-24 22:50:00,1,,,,1,1,0,1,,,,,,,,,,,,
2016-11-24 23:00:00,1,,,,1,1,0,1,,,,,,,,,,,,
2016-11-24 23:10:00,1,,,,1,1,0,1,,,,,,,,,,,,
2016-11-24 23:20:00,1,,,,1,1,0,1,,,,,,,,,,,,
2016-11-24 23:30:00,1,,,,1,1,0,1,,,,,,,,,,,,
2016-11-24 23:40:00,1,,,,1,1,0,1,,,,,,,,,,,,
2016-11-24 23:50:00,1,,,,1,1,0,1,,,,,,,,,,,,
